WO0TEN Weather Reports


Display with metric or nautical units.
time (UTC)temp
F
wind
direction
speed
MPH
gust
MPH
rain 1hr
in
rain 24hr
in
rain mn
in
humidity
%
barometer
mb
20220119034126 62 197 8.0 0.0 0.00 0.00 0.00 91
20220119033523 62 175 6.0 0.0 0.00 0.00 0.00 90
20220119032919 62 150 6.0 0.0 0.00 0.00 0.00 89
20220119032315 62 135 6.0 0.0 0.00 0.00 0.00 88
20220119031711 62 169 6.0 0.0 0.00 0.00 0.00 87
20220119031106 62 187 6.0 0.0 0.00 0.00 0.00 87
20220119030502 62 188 5.0 0.0 0.00 0.00 0.00 86
20220119025858 62 213 4.0 0.0 0.00 0.00 0.00 85
20220119025254 62 203 4.0 0.0 0.00 0.00 0.00 85
20220119024650 62 154 3.0 0.0 0.00 0.00 0.00 84
20220119024046 62 142 3.0 0.0 0.00 0.00 0.00 83
20220119023441 62 167 3.0 0.0 0.00 0.00 0.00 83
20220119022837 62 180 2.0 0.0 0.00 0.00 0.00 82
20220119022233 62 180 1.0 0.0 0.00 0.00 0.00 82
20220119021629 63 180 2.0 0.0 0.00 0.00 0.00 81
20220119021024 63 203 3.0 0.0 0.00 0.00 0.00 81
20220119020421 63 225 3.0 0.0 0.00 0.00 0.00 81
20220119015817 63 225 2.0 0.0 0.00 0.00 0.00 81
20220119015213 63 225 2.0 0.0 0.00 0.00 0.00 81
20220119014610 63 225 2.0 0.0 0.00 0.00 0.00 81
20220119014005 63 225 1.0 0.0 0.00 0.00 0.00 80
20220119013401 63 225 1.0 0.0 0.00 0.00 0.00 79
20220119012757 63 225 1.0 0.0 0.00 0.00 0.00 79
20220119012153 64 225 2.0 0.0 0.00 0.00 0.00 78
20220119011549 64 208 3.0 0.0 0.00 0.00 0.00 78
20220119010945 64 159 3.0 0.0 0.00 0.00 0.00 77
20220119010342 64 135 2.0 0.0 0.00 0.00 0.00 77
20220119005737 64 135 2.0 0.0 0.00 0.00 0.00 76
20220119005133 65 152 3.0 0.0 0.00 0.00 0.00 75
20220119004529 65 155 4.0 0.0 0.00 0.00 0.00 74
20220119003925 65 137 5.0 0.0 0.00 0.00 0.00 74
20220119003321 65 186 5.0 0.0 0.00 0.00 0.00 73
20220119002717 66 225 5.0 0.0 0.00 0.00 0.00 72
20220119002113 66 225 6.0 0.0 0.00 0.00 0.00 71
20220119001510 66 225 6.0 0.0 0.00 0.00 0.00 71
20220119000905 66 225 5.0 0.0 0.00 0.00 0.00 70
20220119000302 67 213 7.0 0.0 0.00 0.00 0.00 69
20220118235657 67 204 7.0 0.0 0.00 0.00 0.00 68
20220118235053 67 202 8.0 0.0 0.00 0.00 0.00 67
20220118234449 68 201 10.0 0.0 0.00 0.00 0.00 67
20220118233844 68 224 10.0 0.0 0.00 0.00 0.00 66
20220118233241 68 224 11.0 0.0 0.00 0.00 0.00 66
20220118232637 69 200 12.0 0.0 0.00 0.00 0.00 65
20220118232031 69 184 13.0 0.0 0.00 0.00 0.00 66
20220118231427 69 201 13.0 0.0 0.00 0.00 0.00 66
20220118230823 69 220 11.0 0.0 0.00 0.00 0.00 66
20220118230219 69 224 9.0 0.0 0.00 0.00 0.00 66
20220118225614 69 218 11.0 0.0 0.00 0.00 0.00 65
20220118225010 69 218 12.0 0.0 0.00 0.00 0.00 65
20220118224406 69 225 10.0 0.0 0.00 0.00 0.00 66
20220118223801 69 225 11.0 0.0 0.00 0.00 0.00 66
20220118223156 69 200 12.0 0.0 0.00 0.00 0.00 66
20220118222552 69 185 10.0 0.0 0.00 0.00 0.00 66
20220118221948 70 209 11.0 0.0 0.00 0.00 0.00 66
20220118221344 70 225 12.0 0.0 0.00 0.00 0.00 67
20220118220739 70 223 13.0 0.0 0.00 0.00 0.00 68
20220118220135 70 213 12.0 0.0 0.00 0.00 0.00 69
20220118215531 70 184 11.0 0.0 0.00 0.00 0.00 69
20220118214926 70 198 11.0 0.0 0.00 0.00 0.00 70
20220118214322 70 219 11.0 0.0 0.00 0.00 0.00 70
20220118213718 70 219 12.0 0.0 0.00 0.00 0.00 70
20220118213113 70 223 13.0 0.0 0.00 0.00 0.00 69
20220118212509 70 220 13.0 0.0 0.00 0.00 0.00 69
20220118211905 70 205 14.0 0.0 0.00 0.00 0.00 69
20220118211300 70 186 17.0 0.0 0.00 0.00 0.00 70
20220118210656 70 201 15.0 0.0 0.00 0.00 0.00 71
20220118210052 69 220 12.0 0.0 0.00 0.00 0.00 72
20220118205448 69 212 12.0 0.0 0.00 0.00 0.00 72
20220118204844 69 195 13.0 0.0 0.00 0.00 0.00 72
20220118204240 68 208 13.0 0.0 0.00 0.00 0.00 72
20220118203635 69 221 14.0 0.0 0.00 0.00 0.00 72
20220118203031 69 225 13.0 0.0 0.00 0.00 0.00 72
20220118202427 69 225 11.0 0.0 0.00 0.00 0.00 73
20220118201824 69 225 12.0 0.0 0.00 0.00 0.00 73
20220118201220 69 225 11.0 0.0 0.00 0.00 0.00 73
20220118200615 69 225 12.0 0.0 0.00 0.00 0.00 74
20220118200010 68 224 15.0 0.0 0.00 0.00 0.00 74
20220118195406 68 225 16.0 0.0 0.00 0.00 0.00 74
20220118194802 69 218 15.0 0.0 0.00 0.00 0.00 74
20220118194158 69 216 15.0 0.0 0.00 0.00 0.00 74
20220118193553 69 225 14.0 0.0 0.00 0.00 0.00 74
20220118192949 69 225 14.0 0.0 0.00 0.00 0.00 76
20220118192345 68 225 15.0 0.0 0.00 0.00 0.00 77
20220118191741 68 225 15.0 0.0 0.00 0.00 0.00 78
20220118191137 68 225 13.0 0.0 0.00 0.00 0.00 79
20220118190533 68 225 15.0 0.0 0.00 0.00 0.00 79
20220118185929 68 222 15.0 0.0 0.00 0.00 0.00 80
20220118185326 67 225 15.0 0.0 0.00 0.00 0.00 82
20220118184722 67 223 16.0 0.0 0.00 0.00 0.00 83
20220118184117 67 221 15.0 0.0 0.00 0.00 0.00 83
20220118183513 67 220 15.0 0.0 0.00 0.00 0.00 83
20220118182910 67 216 14.0 0.0 0.00 0.00 0.00 84
20220118182306 66 214 15.0 0.0 0.00 0.00 0.00 84
20220118181702 66 210 14.0 0.0 0.00 0.00 0.00 86
20220118181058 66 213 13.0 0.0 0.00 0.00 0.00 87
20220118180453 65 223 10.0 0.0 0.00 0.00 0.00 89
20220118175850 65 222 12.0 0.0 0.00 0.00 0.00 90
20220118175246 65 217 13.0 0.0 0.00 0.00 0.00 91
20220118174642 64 220 12.0 0.0 0.00 0.00 0.00 91
20220118174038 64 213 11.0 0.0 0.00 0.00 0.00 92
20220118173434 64 212 12.0 0.0 0.00 0.00 0.00 92
20220118172830 63 219 14.0 0.0 0.00 0.00 0.00 93
20220118172226 62 217 13.0 0.0 0.00 0.00 0.00 94
20220118171622 62 222 13.0 0.0 0.00 0.00 0.00 95
20220118171017 61 215 17.0 0.0 0.00 0.00 0.00 95
20220118170413 61 215 18.0 0.0 0.00 0.00 0.00 96
20220118165809 60 225 17.0 0.0 0.00 0.00 0.00 96
20220118165206 60 225 14.0 0.0 0.00 0.00 0.00 97
20220118164601 60 224 14.0 0.0 0.00 0.00 0.00 97
20220118163958 60 224 14.0 0.0 0.00 0.00 0.00 98
20220118163353 58 224 11.0 0.0 0.00 0.00 0.00 99
20220118162750 58 225 12.0 0.0 0.00 0.00 0.00 99
20220118162146 58 225 10.0 0.0 0.00 0.00 0.00 99
20220118161541 58 217 8.0 0.0 0.00 0.00 0.00 99
20220118160938 58 211 10.0 0.0 0.00 0.00 0.00 99
20220118160334 57 217 12.0 0.0 0.00 0.00 0.00 99
20220118155730 56 224 13.0 0.0 0.00 0.00 0.00 99
20220118155126 55 224 12.0 0.0 0.00 0.00 0.00 99
20220118154523 55 223 11.0 0.0 0.00 0.00 0.00 99
20220118153919 55 223 13.0 0.0 0.00 0.00 0.00 99
20220118153314 54 225 12.0 0.0 0.00 0.00 0.00 99
20220118152711 54 225 9.0 0.0 0.00 0.00 0.00 99
20220118152106 54 225 9.0 0.0 0.00 0.00 0.00 99
20220118151502 53 224 10.0 0.0 0.00 0.00 0.00 99
20220118150858 53 208 10.0 0.0 0.00 0.00 0.00 99
20220118150254 53 190 10.0 0.0 0.00 0.00 0.00 99
20220118145650 53 208 10.0 0.0 0.00 0.00 0.00 99
20220118145046 53 222 12.0 0.0 0.00 0.00 0.00 99
20220118144443 52 214 12.0 0.0 0.00 0.00 0.00 99
20220118143839 52 217 10.0 0.0 0.00 0.00 0.00 99
20220118143234 52 225 10.0 0.0 0.00 0.00 0.00 99
20220118142631 52 225 10.0 0.0 0.00 0.00 0.00 99
20220118142027 52 225 10.0 0.0 0.00 0.00 0.00 99
20220118141423 51 225 9.0 0.0 0.00 0.00 0.00 99
20220118140819 51 225 9.0 0.0 0.00 0.00 0.00 99
20220118140214 51 225 8.0 0.0 0.00 0.00 0.00 99
20220118135610 50 224 7.0 0.0 0.00 0.00 0.00 99
20220118134951 50 224 9.0 0.0 0.00 0.00 0.00 99
20220118134347 50 225 9.0 0.0 0.00 0.00 0.00 99
20220118133743 50 225 9.0 0.0 0.00 0.00 0.00 99
20220118133138 50 211 8.0 0.0 0.00 0.00 0.00 99
20220118132535 49 186 7.0 0.0 0.00 0.00 0.00 99
20220118131931 49 209 6.0 0.0 0.00 0.00 0.00 99
20220118131327 49 222 8.0 0.0 0.00 0.00 0.00 99
20220118130723 49 211 8.0 0.0 0.00 0.00 0.00 99
20220118130118 49 194 8.0 0.0 0.00 0.00 0.00 99
20220118125514 49 156 7.0 0.0 0.00 0.00 0.00 99
20220118124910 49 164 9.0 0.0 0.00 0.00 0.00 99
20220118124306 49 206 9.0 0.0 0.00 0.00 0.00 99
20220118123703 49 218 9.0 0.0 0.00 0.00 0.00 99
20220118123058 49 221 9.0 0.0 0.00 0.00 0.00 99
20220118122454 49 198 9.0 0.0 0.00 0.00 0.00 99
20220118121850 49 202 8.0 0.0 0.00 0.00 0.00 99
20220118121247 49 225 6.0 0.0 0.00 0.00 0.00 99
20220118120643 49 223 7.0 0.0 0.00 0.00 0.00 99
20220118120038 49 223 7.0 0.0 0.00 0.00 0.00 99
20220118115435 49 224 7.0 0.0 0.00 0.00 0.00 99
20220118114831 49 224 6.0 0.0 0.00 0.00 0.00 99
20220118114227 49 217 4.0 0.0 0.00 0.00 0.00 98
20220118113623 49 191 4.0 0.0 0.00 0.00 0.00 98
20220118113019 48 197 5.0 0.0 0.00 0.00 0.00 98
20220118112415 48 218 4.0 0.0 0.00 0.00 0.00 97
20220118111812 48 225 4.0 0.0 0.00 0.00 0.00 97
20220118111208 47 225 6.0 0.0 0.00 0.00 0.00 97
20220118110604 47 179 4.0 0.0 0.00 0.00 0.00 96
20220118110000 47 139 1.0 0.0 0.00 0.00 0.00 95
20220118105356 47 139 1.0 0.0 0.00 0.00 0.00 94
20220118104752 47 154 1.0 0.0 0.00 0.00 0.00 94
20220118104149 47 166 1.0 0.0 0.00 0.00 0.00 93
20220118103545 47 143 1.0 0.0 0.00 0.00 0.00 93
20220118102940 47 135 1.0 0.0 0.00 0.00 0.00 93
20220118102335 47 135 1.0 0.0 0.00 0.00 0.00 92
20220118101731 47 135 1.0 0.0 0.00 0.00 0.00 92
20220118101127 47 135 1.0 0.0 0.00 0.00 0.00 91
20220118100523 47 135 1.0 0.0 0.00 0.00 0.00 91
20220118095919 47 135 1.0 0.0 0.00 0.00 0.00 90
20220118095315 47 135 1.0 0.0 0.00 0.00 0.00 90
20220118094709 47 135 1.0 0.0 0.00 0.00 0.00 89
20220118094105 47 138 1.0 0.0 0.00 0.00 0.00 89
20220118093501 47 138 0.0 0.0 0.00 0.00 0.00 87
20220118092857 47 135 0.0 0.0 0.00 0.00 0.00 86
20220118092253 47 135 0.0 0.0 0.00 0.00 0.00 85
20220118091649 47 135 0.0 0.0 0.00 0.00 0.00 84
20220118091046 48 135 0.0 0.0 0.00 0.00 0.00 83
20220118090441 48 135 1.0 0.0 0.00 0.00 0.00 82
20220118085837 48 135 1.0 0.0 0.00 0.00 0.00 81
20220118085233 48 135 1.0 0.0 0.00 0.00 0.00 80
20220118084629 48 135 1.0 0.0 0.00 0.00 0.00 79
20220118084024 48 135 1.0 0.0 0.00 0.00 0.00 78
20220118083420 48 140 1.0 0.0 0.00 0.00 0.00 77
20220118082815 48 140 1.0 0.0 0.00 0.00 0.00 76
20220118082211 48 135 1.0 0.0 0.00 0.00 0.00 75
20220118081607 48 135 1.0 0.0 0.00 0.00 0.00 74
20220118081003 49 135 1.0 0.0 0.00 0.00 0.00 73
20220118080359 49 170 2.0 0.0 0.00 0.00 0.00 72
20220118075754 48 171 3.0 0.0 0.00 0.00 0.00 71
20220118075150 48 148 3.0 0.0 0.00 0.00 0.00 69
20220118074546 48 145 2.0 0.0 0.00 0.00 0.00 67
20220118073943 49 135 2.0 0.0 0.00 0.00 0.00 65
20220118073339 49 135 1.0 0.0 0.00 0.00 0.00 64
20220118072734 49 148 1.0 0.0 0.00 0.00 0.00 63
20220118072130 49 148 1.0 0.0 0.00 0.00 0.00 62
20220118071526 49 146 1.0 0.0 0.00 0.00 0.00 60
20220118070922 49 153 1.0 0.0 0.00 0.00 0.00 59
20220118070318 50 163 1.0 0.0 0.00 0.00 0.00 59
20220118065714 50 181 2.0 0.0 0.00 0.00 0.00 58
20220118065110 50 193 3.0 0.0 0.00 0.00 0.00 57
20220118064506 50 204 3.0 0.0 0.00 0.00 0.00 56
20220118063902 50 204 4.0 0.0 0.00 0.00 0.00 55
20220118063257 50 221 5.0 0.0 0.00 0.00 0.00 54
20220118062652 50 212 4.0 0.0 0.00 0.00 0.00 54
20220118062049 50 211 3.0 0.0 0.00 0.00 0.00 53
20220118061445 50 200 3.0 0.0 0.00 0.00 0.00 52
20220118060841 50 142 4.0 0.0 0.00 0.00 0.00 52
20220118060237 50 138 3.0 0.0 0.00 0.00 0.00 52
20220118055522 51 162 3.0 0.0 0.00 0.00 0.00 51
20220118054918 51 183 5.0 0.0 0.00 0.00 0.00 51
20220118054315 51 187 5.0 0.0 0.00 0.00 0.00 51
20220118053711 51 158 5.0 0.0 0.00 0.00 0.00 51
20220118053106 51 157 6.0 0.0 0.00 0.00 0.00 51
20220118052503 51 186 5.0 0.0 0.00 0.00 0.00 51
20220118051859 52 180 5.0 0.0 0.00 0.00 0.00 51
20220118051255 52 192 7.0 0.0 0.00 0.00 0.00 51
20220118050651 52 178 7.0 0.0 0.00 0.00 0.00 51
20220118050047 51 163 7.0 0.0 0.00 0.00 0.00 51
20220118045443 51 173 7.0 0.0 0.00 0.00 0.00 51
20220118044840 51 202 6.0 0.0 0.00 0.00 0.00 52
20220118044236 50 194 5.0 0.0 0.00 0.00 0.00 52
20220118043632 49 151 3.0 0.0 0.00 0.00 0.00 53
20220118043027 49 141 1.0 0.0 0.00 0.00 0.00 55
20220118042423 49 135 1.0 0.0 0.00 0.00 0.00 56
20220118041820 50 135 1.0 0.0 0.00 0.00 0.00 55
20220118041216 50 135 1.0 0.0 0.00 0.00 0.00 53
20220118040611 50 144 1.0 0.0 0.00 0.00 0.00 53
20220118040006 51 192 1.0 0.0 0.00 0.00 0.00 52
20220118035403 51 222 1.0 0.0 0.00 0.00 0.00 52
20220118034758 51 173 1.0 0.0 0.00 0.00 0.00 52